Вернуться в каталог

STARLINK-3291

АктивенСвязьVLEO
NORAD 50175·PAYLOAD·🇺🇸 United States

Запущен Dec 18, 2021 с Vandenberg Space Force Base

Loading…

Ближайшие Пролёты (ближайшие 24 часа)

TLE

СвежийSource: CelesTrak SupGP

Эпоха: Sep 14, 2026, 21:59 UTC

1 50175C 21125V   26257.91645833 -.00024810  00000+0 -70992-3 0  2573
2 50175  53.1585 109.6278 0001302  82.6947 215.1669 15.35406928    16

Отслеживайте STARLINK-3291 в реальном времени с AllMySat

Download on the App Store